Wetbulb
67.42 62.94 63.43 60.79 51.66 50.84 49.53 49.29 52.24 51.52 52.55 55.76 56.37 55.54 56.22 58.61 58.07 57.32 70.95 72.68 71.15 72.14 76.36 77.09 76.75 77.35 77.75 77.85 77.62 77.60 77.39 77.22 77.15 76.95 76.89 76.94 77.04 77.04 76.86 76.53 76.01 75.33 74.08 72.90 71.40 70.10 69.18 68.47 67.77
65.01 62.30 61.33 57.30 47.90 46.19 48.68 51.29 49.92 51.90 53.54 55.34 56.18 56.00 55.70 56.32 59.77 61.02 64.85 72.15 71.40 73.57 76.54 75.94 76.64 76.85 77.48 77.50 77.22 77.16 77.19 77.14 77.19 76.94 76.91 76.94 76.93 76.79 76.48 76.04 75.44 74.39 73.20 71.89 70.31 69.48 68.84 68.26 67.69
64.39 64.07 56.26 52.26 48.43 44.08 46.27 49.98 51.65 52.94 54.01 55.06 55.19 57.56 57.17 58.24 64.59 67.72 72.69 72.49 72.56 74.31 76.17 75.94 76.59 76.67 77.15 77.12 76.91 76.63 76.79 76.83 76.96 76.93 76.88 76.88 76.58 76.10 75.70 75.51 75.19 73.91 72.53 70.81 70.03 69.46 69.56 68.71 68.53
63.25 60.74 56.85 49.44 46.17 47.68 47.43 51.06 52.78 52.69 53.57 55.69 56.92 56.23 59.42 65.00 65.21 68.89 71.06 73.33 72.43 74.01 75.26 76.73 76.29 76.32 76.54 76.72 76.64 76.38 76.41 76.51 76.61 76.68 76.66 76.33 76.06 75.40 75.00 74.79 74.54 73.74 71.92 70.81 70.54 70.72 70.52 70.15 69.04
62.96 59.24 51.02 49.31 47.89 48.61 50.27 52.04 52.99 52.06 52.99 53.63 57.42 56.57 59.41 65.00 67.02 71.94 72.66 73.31 71.90 73.34 74.04 77.79 76.31 76.12 76.47 76.59 76.34 76.11 76.01 75.88 75.86 76.19 76.01 75.84 75.31 74.83 74.49 74.19 74.06 73.35 73.01 72.31 71.36 71.16 71.49 71.16 69.85
57.43 57.10 50.00 47.54 48.86 50.26 52.50 54.46 54.72 54.84 55.12 54.55 56.67 57.81 60.57 64.91 66.29 71.15 72.20 73.02 72.58 72.28 73.35 76.32 76.40 76.11 76.06 76.29 75.86 75.46 75.43 75.33 75.36 75.36 75.21 75.11 74.68 74.34 74.12 73.87 73.54 73.27 73.13 72.58 71.98 71.87 71.52 71.43 71.07
56.46 53.94 49.92 50.10 50.10 51.11 53.17 56.39 54.63 55.33 55.77 55.45 59.01 56.53 60.67 62.09 66.83 71.21 71.88 72.34 72.45 71.86 72.45 75.99 76.76 76.97 76.11 75.88 75.58 75.40 75.17 75.04 74.97 74.79 74.60 74.60 74.43 74.04 73.54 73.30 73.14 73.24 73.14 72.48 72.26 72.02 71.65 71.41 70.63
56.92 55.32 51.17 51.12 49.61 49.93 54.83 55.94 57.56 56.77 55.56 59.47 59.54 56.75 57.71 61.31 65.60 70.49 71.42 71.07 71.64 71.54 71.94 74.45 75.65 76.48 76.24 75.99 75.80 75.44 75.26 75.11 74.87 74.93 74.81 74.59 74.25 73.76 73.42 72.54 72.82 73.27 73.12 72.55 72.30 72.08 71.86 71.49 71.12
57.07 51.93 49.66 50.75 51.07 52.34 55.67 54.22 57.22 58.60 56.63 58.00 58.71 58.76 60.61 61.16 61.68 67.36 70.97 69.48 71.26 70.72 71.35 73.51 73.83 75.21 75.09 74.13 75.63 75.43 75.42 75.19 75.02 75.18 74.95 74.17 73.32 73.59 73.07 71.35 72.52 73.15 73.22 72.73 72.35 72.18 72.06 71.37 70.24
52.73 50.40 50.71 54.32 54.70 53.81 55.43 55.77 55.23 54.18 55.28 55.84 57.58 60.23 60.22 60.72 60.34 61.23 63.50 69.11 69.30 69.91 70.41 71.95 74.00 73.73 74.20 72.35 75.02 75.39 75.22 75.39 75.35 74.78 75.29 74.43 73.59 73.89 72.14 72.46 72.34 72.65 72.97 72.65 72.57 72.37 72.13 70.97 68.81
51.12 49.06 52.69 53.18 54.56 55.55 54.83 54.94 56.39 53.13 52.08 55.57 55.93 56.79 58.31 58.41 59.65 60.30 62.80 66.11 68.47 69.73 70.86 71.95 73.56 76.14 74.40 72.64 73.48 74.13 73.94 74.25 74.41 74.84 75.35 75.07 74.27 74.91 73.78 72.86 72.87 71.81 71.80 70.20 70.87 70.76 70.02 69.62 69.50
47.16 50.67 51.60 52.30 53.90 52.01 52.13 54.72 52.83 53.00 52.50 54.61 55.45 56.05 56.05 57.26 58.70 60.02 61.87 63.02 68.98 69.00 69.78 71.55 73.47 74.76 75.84 73.71 73.73 73.50 73.00 73.72 73.68 74.49 75.88 74.97 74.18 74.28 73.76 72.40 72.49 72.43 71.27 71.03 70.44 69.83 70.56 70.34 70.20
46.63 48.53 49.13 50.53 50.69 51.18 51.99 50.75 50.34 51.93 53.54 52.89 53.59 54.75 55.43 56.40 57.82 59.65 61.63 65.33 66.46 69.52 69.62 70.42 72.28 74.01 74.78 75.19 73.49 73.79 73.09 73.24 74.10 74.04 75.28 74.75 73.65 73.34 73.34 73.01 72.70 72.22 71.96 71.09 71.18 70.42 70.07 70.19 70.34
47.52 47.75 48.09 49.27 49.37 49.98 48.26 48.63 49.53 50.97 52.65 51.96 52.66 53.48 54.67 56.01 57.05 57.96 59.69 62.52 66.15 66.62 70.18 70.42 70.71 71.52 74.02 74.70 75.07 73.82 74.82 74.37 74.01 73.29 73.92 74.45 73.89 73.35 72.58 73.04 72.46 72.13 71.73 71.15 70.74 70.05 69.71 69.44 69.09
47.32 44.50 46.61 47.22 47.91 47.45 48.68 45.78 47.01 51.21 51.76 51.28 51.32 53.75 54.40 55.08 56.36 57.19 59.06 61.02 64.21 65.52 68.33 72.06 72.53 72.82 73.66 74.37 73.70 73.22 72.62 73.02 72.72 72.99 74.16 74.34 74.71 74.29 73.79 72.02 71.41 71.36 72.87 72.97 71.48 70.63 70.26 69.05 68.67
45.04 44.84 41.82 45.71 46.05 46.83 46.30 42.20 47.02 49.95 49.71 49.92 50.35 50.73 53.28 54.74 55.21 56.67 58.12 59.69 62.11 65.42 68.22 72.00 71.41 71.87 73.68 74.47 73.55 72.41 71.12 71.51 70.77 71.33 72.03 73.45 73.86 73.83 73.30 71.17 71.09 71.59 71.64 70.85 69.36 69.37 68.74 68.46 69.03
44.08 40.28 41.20 43.02 46.89 46.03 45.92 43.67 47.91 49.75 49.78 49.26 49.98 50.59 51.55 53.16 55.18 56.35 57.74 58.78 61.17 63.33 66.19 69.61 72.83 71.06 73.09 73.86 72.92 72.78 73.85 71.40 70.06 70.66 70.38 72.46 72.36 72.46 72.04 70.20 69.88 73.38 70.22 69.65 69.58 69.06 69.42 69.34 69.85
40.38 40.30 41.19 41.50 45.23 45.68 44.78 44.90 47.78 49.38 49.34 49.11 49.31 50.72 50.83 51.28 52.85 55.26 57.01 58.50 59.78 62.61 64.76 67.57 72.29 73.32 71.88 72.50 72.10 70.12 69.92 70.30 70.04 69.82 70.13 71.44 71.34 70.89 70.26 69.44 70.11 71.20 69.42 68.65 69.54 71.09 70.99 70.62 70.74
41.84 40.83 40.34 42.69 45.16 43.89 43.93 44.59 46.45 48.61 48.98 49.04 49.68 50.45 50.99 51.24 53.56 54.78 56.66 58.54 58.68 61.16 62.72 64.11 67.93 72.62 73.66 72.25 70.17 69.15 67.67 69.08 69.22 69.62 72.00 71.11 70.69 70.23 71.01 69.24 69.48 69.96 70.13 70.09 71.38 71.73 70.99 70.91 71.92
41.64 40.58 40.87 42.87 44.19 43.49 43.14 42.95 46.01 47.35 47.93 48.80 49.91 50.15 50.99 51.47 52.40 53.96 55.47 57.34 59.14 60.67 62.52 63.07 63.03 67.17 71.09 73.54 73.46 73.37 72.28 71.22 70.06 70.33 72.70 72.16 70.34 71.24 70.21 71.56 71.72 71.78 71.07 71.60 72.64 72.37 71.03 71.43 72.59
41.54 40.30 40.15 39.50 42.32 44.18 42.88 41.94 43.97 45.94 47.13 48.60 49.48 51.02 51.57 51.47 51.80 53.18 54.13 56.04 58.99 59.16 60.79 61.65 63.84 65.21 66.11 68.82 72.28 73.20 73.65 73.50 72.63 72.23 72.12 71.99 72.14 71.32 72.41 72.94 72.98 75.55 73.75 72.45 73.31 72.96 72.34 70.63 71.79
38.79 42.34 40.81 40.08 39.65 36.92 42.61 35.30 42.49 44.94 45.04 46.77 47.99 49.48 50.37 51.38 52.29 52.60 53.94 54.96 57.35 58.18 59.19 60.55 62.90 63.91 65.14 66.73 68.36 71.64 69.42 69.89 71.27 72.64 73.74 74.37 73.86 73.15 73.26 73.92 74.68 76.77 74.81 75.18 73.99 73.40 72.93 72.85 70.52
40.19 42.34 41.54 41.43 40.10 39.92 40.03 37.16 42.21 43.86 42.67 44.80 46.51 47.96 49.49 51.07 51.50 52.33 52.88 55.07 56.61 57.62 58.94 60.55 61.81 63.41 65.43 66.71 67.19 66.33 70.83 70.40 71.77 72.32 75.57 77.87 77.30 74.79 74.09 74.83 76.04 76.23 74.62 75.59 75.64 73.81 73.30 72.40 70.83
43.90 42.15 42.54 42.56 40.60 34.39 39.28 38.01 39.57 42.33 43.63 44.85 47.08 48.27 49.08 50.83 52.00 53.78 54.36 55.06 56.00 57.46 57.64 59.87 61.17 62.37 64.45 65.76 65.95 66.94 67.22 70.62 69.58 71.25 71.00 72.10 73.65 74.63 75.20 74.81 75.54 76.37 75.23 75.45 74.15 74.48 73.21 72.84 73.07
43.13 40.43 34.85 33.57 33.95 34.37 39.48 36.69 40.14 44.00 45.24 46.29 47.32 48.53 50.08 51.64 52.12 53.40 53.53 53.93 54.65 55.53 57.43 58.40 59.32 60.56 62.30 63.72 63.67 64.72 66.84 68.15 70.79 72.67 70.82 71.71 70.10 71.12 75.56 75.51 76.59 75.40 75.54 75.46 74.46 73.84 73.43 73.24 72.69
41.65 40.58 34.83 27.46 30.97 35.16 39.70 35.20 41.57 45.73 46.93 48.13 49.10 49.93 50.72 51.84 52.89 53.54 54.11 55.21 55.28 55.71 56.14 57.36 58.13 59.48 61.31 62.15 63.54 64.00 65.45 65.75 66.94 69.43 68.79 68.96 69.48 70.58 76.17 75.01 75.20 75.01 74.92 74.75 74.83 73.52 72.68 73.35 72.58
40.56 37.31 41.97 35.72 37.18 33.75 37.32 41.08 45.04 46.77 45.84 47.13 47.27 48.40 49.67 51.31 52.60 53.40 53.99 55.01 55.50 56.22 56.85 57.49 58.16 58.90 60.37 61.23 62.79 63.58 64.50 66.62 67.62 70.78 70.62 69.49 71.32 70.54 73.48 73.83 74.26 74.79 74.99 74.78 74.12 72.34 72.80 72.97 72.73
42.62 44.03 35.67 37.01 28.54 28.75 35.60 37.58 38.95 42.72 44.16 45.70 46.23 47.57 49.26 50.80 52.03 52.77 53.46 54.37 55.44 56.16 56.70 58.11 59.26 59.39 60.59 61.52 61.84 62.15 63.24 65.43 67.43 69.59 71.21 72.84 74.12 73.51 72.88 73.31 73.76 74.14 73.88 73.47 73.76 73.29 73.99 72.42 72.78
39.99 38.46 39.31 39.21 36.43 30.30 30.56 36.73 44.91 43.58 45.38 45.29 47.06 48.15 49.44 50.51 51.53 52.44 53.37 54.68 55.14 55.90 56.12 57.20 58.19 58.98 59.48 60.31 61.42 62.10 63.05 64.97 66.34 67.88 69.28 71.18 72.62 72.19 71.68 72.49 72.87 72.77 72.75 73.35 73.91 74.23 73.52 72.91 72.94
42.81 40.62 39.76 33.65 32.88 36.39 33.82 34.94 46.57 46.81 46.94 47.26 47.66 49.14 50.48 51.61 52.03 52.88 53.65 54.12 54.40 55.08 55.92 56.80 58.03 58.44 59.01 59.58 59.95 60.90 63.00 64.68 66.38 67.30 69.28 69.89 70.51 71.86 71.90 72.18 72.06 71.81 72.20 73.50 73.71 73.35 73.12 72.61 72.15
MSLP
1010.95 1010.10 1009.53 1008.51 1007.09 1004.98 1002.82 1002.77 1003.05 1002.78 1002.90 1002.90 1003.18 1002.82 1002.04 1001.25 1000.86 1001.08 1002.89 1003.22 1003.63 1004.75 1006.14 1007.56 1008.47 1009.16 1009.53 1009.74 1010.03 1010.36 1010.58 1010.87 1011.23 1011.66 1012.00 1012.37 1012.67 1013.05 1013.56 1013.93 1014.24 1014.41 1014.52 1014.74 1014.91 1015.04 1015.11 1015.30 1015.42
1010.51 1010.09 1009.11 1007.75 1006.34 1004.21 1002.90 1003.36 1003.04 1002.85 1003.40 1003.64 1003.30 1002.83 1002.65 1001.89 1002.08 1002.06 1002.37 1003.98 1004.35 1005.00 1006.31 1007.06 1008.56 1009.09 1009.64 1009.92 1010.17 1010.45 1010.73 1010.96 1011.36 1011.77 1012.08 1012.59 1012.88 1013.23 1013.58 1013.98 1014.20 1014.57 1014.73 1014.93 1015.08 1015.23 1015.34 1015.48 1015.63
1010.65 1010.06 1008.25 1006.96 1005.88 1005.10 1004.12 1003.99 1003.42 1003.65 1003.79 1003.65 1003.40 1003.34 1002.97 1002.75 1003.40 1003.58 1004.03 1004.61 1005.03 1005.72 1006.32 1007.01 1008.28 1009.16 1009.64 1009.98 1010.29 1010.57 1010.96 1011.22 1011.50 1011.79 1012.18 1012.55 1012.93 1013.25 1013.50 1013.92 1014.25 1014.46 1014.78 1015.05 1015.16 1015.31 1015.52 1015.74 1015.81
1009.78 1009.05 1008.58 1007.21 1005.87 1006.11 1005.96 1004.87 1004.64 1004.12 1003.80 1003.99 1003.82 1003.36 1003.50 1004.29 1004.70 1004.60 1004.42 1004.67 1004.91 1005.83 1006.29 1007.28 1007.87 1008.82 1009.56 1010.05 1010.31 1010.59 1010.91 1011.33 1011.64 1011.93 1012.21 1012.54 1012.83 1013.21 1013.47 1013.88 1014.28 1014.53 1014.82 1015.06 1015.32 1015.51 1015.67 1015.70 1015.99
1009.32 1008.11 1007.05 1006.56 1006.17 1006.61 1006.34 1005.85 1005.06 1004.32 1003.97 1003.69 1003.81 1003.46 1003.48 1004.07 1004.91 1004.98 1004.75 1004.40 1004.32 1005.26 1005.99 1007.15 1007.92 1008.59 1009.41 1010.04 1010.54 1010.72 1010.96 1011.24 1011.74 1012.00 1012.24 1012.54 1012.83 1013.19 1013.55 1013.85 1014.25 1014.53 1014.89 1015.01 1015.22 1015.51 1015.70 1015.91 1015.95
1007.94 1007.52 1006.31 1005.64 1005.72 1006.21 1006.09 1005.83 1005.21 1004.51 1004.07 1003.59 1003.79 1003.83 1003.39 1004.29 1004.62 1004.99 1004.61 1004.13 1004.25 1004.85 1005.76 1007.02 1008.26 1008.58 1009.26 1009.89 1010.38 1010.85 1011.11 1011.43 1011.70 1011.92 1012.25 1012.59 1013.04 1013.34 1013.62 1013.87 1014.29 1014.59 1014.89 1015.02 1015.31 1015.61 1015.80 1016.05 1016.03
1007.45 1006.52 1005.64 1005.19 1004.76 1005.34 1005.33 1005.64 1005.43 1004.72 1004.21 1003.76 1004.22 1003.74 1003.82 1004.37 1004.86 1005.01 1005.13 1004.32 1004.33 1004.74 1005.67 1006.81 1008.00 1008.72 1009.47 1010.09 1010.65 1011.12 1011.41 1011.65 1011.93 1012.26 1012.49 1012.90 1013.33 1013.62 1013.75 1014.04 1014.34 1014.63 1015.00 1015.06 1015.30 1015.65 1015.87 1016.06 1016.06
1007.12 1006.29 1005.31 1004.76 1004.25 1004.28 1004.70 1005.39 1005.13 1005.05 1004.35 1004.86 1004.77 1003.63 1004.08 1004.83 1004.93 1004.86 1005.16 1004.66 1004.26 1004.77 1005.55 1006.37 1007.35 1008.19 1008.84 1009.64 1010.71 1011.23 1011.75 1012.04 1012.30 1012.56 1012.86 1013.13 1013.53 1013.89 1014.07 1014.23 1014.29 1014.47 1014.81 1015.15 1015.47 1015.71 1015.82 1016.02 1016.07
1007.45 1006.14 1004.31 1003.83 1003.88 1003.99 1004.50 1005.25 1005.29 1005.20 1005.02 1004.97 1004.77 1004.57 1004.63 1004.98 1004.62 1004.43 1004.79 1005.13 1004.53 1004.61 1005.39 1006.06 1007.05 1007.79 1008.35 1008.69 1010.11 1011.33 1011.74 1012.18 1012.57 1012.80 1013.14 1013.34 1013.00 1013.44 1013.75 1013.92 1014.04 1014.43 1014.66 1014.89 1015.21 1015.46 1015.69 1015.95 1016.08
1006.79 1005.30 1003.99 1003.79 1003.67 1003.80 1003.95 1004.66 1005.27 1005.69 1005.05 1004.80 1004.78 1004.30 1004.72 1004.73 1004.63 1004.31 1004.12 1004.41 1004.99 1004.91 1005.29 1005.94 1007.02 1007.59 1008.08 1008.26 1009.17 1010.54 1011.10 1011.48 1011.98 1012.13 1012.49 1012.67 1012.50 1012.62 1012.89 1013.32 1014.21 1014.41 1014.60 1014.88 1014.98 1015.33 1015.52 1015.69 1014.68
1006.35 1004.93 1004.29 1004.31 1004.61 1004.65 1004.30 1004.25 1004.54 1005.62 1005.05 1004.86 1004.54 1004.77 1004.89 1004.85 1004.47 1004.15 1004.28 1004.12 1004.46 1005.44 1005.62 1006.17 1006.97 1007.47 1007.79 1008.00 1008.58 1009.53 1010.20 1010.71 1011.17 1011.47 1011.77 1012.15 1012.18 1012.51 1012.86 1012.77 1013.49 1014.05 1014.41 1014.18 1014.62 1014.84 1014.97 1014.46 1014.17
1006.50 1005.79 1005.45 1005.42 1005.34 1005.87 1005.23 1004.95 1004.89 1005.10 1005.35 1005.59 1005.35 1005.11 1005.09 1004.72 1004.28 1004.08 1004.63 1004.92 1004.11 1004.99 1005.63 1006.27 1006.77 1007.46 1008.21 1007.85 1008.40 1008.62 1009.21 1009.93 1010.32 1010.79 1011.41 1011.56 1011.90 1012.19 1012.26 1012.10 1012.37 1013.16 1013.17 1013.39 1013.39 1013.39 1013.87 1014.11 1014.01
1006.97 1005.88 1006.54 1006.45 1006.34 1006.12 1006.02 1005.61 1005.59 1004.83 1005.27 1005.54 1005.41 1004.99 1004.89 1004.72 1004.30 1004.31 1004.67 1005.20 1005.20 1005.02 1005.56 1006.17 1006.86 1007.37 1008.23 1008.28 1008.11 1008.31 1008.72 1009.31 1009.71 1010.31 1010.90 1011.25 1011.42 1011.68 1011.87 1011.82 1012.01 1012.28 1012.69 1012.85 1013.17 1013.11 1013.19 1013.74 1013.99
1006.86 1006.66 1006.71 1006.65 1006.47 1006.09 1005.90 1005.40 1005.42 1004.74 1004.89 1005.15 1005.33 1004.86 1004.73 1004.45 1004.27 1004.38 1004.37 1004.77 1005.32 1005.22 1005.66 1005.78 1006.64 1007.20 1007.62 1008.27 1008.06 1008.59 1008.88 1009.04 1009.52 1009.82 1010.27 1011.32 1010.98 1011.20 1011.47 1011.79 1011.95 1012.06 1012.32 1012.34 1012.53 1012.67 1012.82 1013.15 1013.28
1007.85 1007.53 1006.73 1006.37 1006.31 1005.94 1005.95 1005.11 1004.49 1004.82 1004.94 1004.97 1005.00 1004.10 1004.34 1004.55 1004.59 1004.35 1004.60 1004.94 1005.09 1005.22 1005.82 1005.49 1005.87 1006.75 1006.91 1007.96 1008.13 1008.23 1008.47 1008.64 1008.92 1009.43 1010.08 1010.42 1010.87 1011.12 1011.52 1011.50 1011.41 1011.46 1011.57 1012.11 1012.66 1012.97 1012.78 1012.85 1012.77
1007.77 1007.33 1005.66 1005.15 1006.16 1006.12 1006.45 1004.12 1004.41 1005.34 1005.20 1004.33 1004.70 1004.35 1004.38 1004.41 1004.71 1004.70 1004.83 1005.04 1005.28 1005.54 1005.64 1005.70 1005.58 1006.16 1007.25 1007.50 1007.37 1007.92 1007.66 1008.24 1008.65 1008.80 1009.11 1009.86 1010.10 1010.66 1011.27 1011.00 1011.38 1011.34 1011.93 1011.82 1011.91 1012.03 1012.16 1012.10 1012.04
1007.05 1005.33 1005.40 1005.10 1006.36 1006.09 1005.87 1004.14 1004.04 1005.38 1005.39 1004.84 1004.90 1004.98 1004.97 1004.73 1004.71 1004.48 1005.05 1005.13 1005.34 1005.23 1005.32 1005.46 1004.86 1005.62 1006.31 1007.17 1007.17 1007.12 1007.34 1007.57 1007.45 1007.93 1008.11 1008.70 1009.54 1009.69 1010.46 1010.79 1010.50 1010.87 1011.17 1011.15 1011.54 1011.50 1011.67 1011.42 1011.53
1005.29 1005.80 1006.01 1005.57 1005.84 1006.08 1005.46 1004.84 1004.66 1004.92 1004.91 1004.73 1004.47 1004.48 1004.97 1004.73 1004.50 1004.68 1005.03 1005.43 1005.39 1005.49 1004.95 1004.09 1004.03 1005.10 1005.51 1007.35 1007.75 1006.92 1006.66 1007.05 1007.30 1007.39 1007.55 1007.99 1009.17 1009.08 1010.31 1010.53 1009.95 1010.38 1011.49 1010.26 1010.99 1010.88 1010.69 1011.06 1010.87
1007.05 1006.72 1006.17 1006.03 1006.29 1006.40 1005.37 1004.61 1004.27 1004.26 1004.27 1004.09 1003.79 1003.65 1003.72 1003.99 1004.40 1004.73 1005.18 1005.43 1005.63 1005.72 1005.79 1005.45 1005.19 1004.30 1006.46 1006.55 1006.99 1005.79 1005.64 1006.09 1006.30 1006.58 1007.03 1007.22 1008.13 1008.71 1009.16 1009.55 1009.49 1010.24 1010.64 1009.63 1010.75 1010.41 1010.40 1010.39 1010.66
1007.54 1006.90 1006.39 1006.49 1006.69 1006.61 1005.57 1004.53 1003.90 1003.38 1003.07 1003.10 1002.97 1002.86 1003.19 1003.48 1003.90 1004.29 1004.95 1005.52 1005.52 1005.56 1005.89 1006.07 1005.86 1006.47 1006.58 1006.61 1005.62 1004.48 1004.51 1004.77 1004.87 1005.51 1006.02 1006.70 1007.35 1007.60 1008.62 1008.38 1008.13 1009.43 1009.62 1009.09 1010.02 1009.52 1009.58 1009.79 1009.82
1007.39 1007.06 1006.77 1006.95 1006.75 1006.24 1005.26 1003.38 1002.46 1002.36 1002.64 1002.71 1002.89 1002.69 1002.99 1003.63 1004.15 1004.44 1004.70 1004.89 1005.14 1005.37 1005.82 1006.00 1005.43 1005.27 1005.41 1005.85 1004.68 1004.00 1004.04 1004.25 1004.45 1005.04 1005.19 1005.91 1006.40 1006.80 1007.47 1007.41 1007.34 1007.85 1008.33 1007.98 1009.04 1008.65 1009.13 1008.52 1009.11
1006.93 1007.10 1007.53 1007.32 1006.78 1005.12 1005.44 1002.97 1001.86 1001.89 1002.06 1002.52 1002.65 1002.63 1002.82 1003.26 1003.83 1004.37 1004.36 1004.76 1004.78 1005.25 1005.52 1005.81 1005.39 1004.84 1004.50 1004.85 1004.48 1003.65 1003.08 1003.20 1003.65 1003.68 1004.10 1004.56 1005.34 1005.92 1006.02 1006.29 1006.85 1007.14 1007.02 1007.10 1007.59 1007.72 1008.14 1008.49 1008.15
1007.22 1007.66 1007.56 1007.27 1006.60 1005.75 1004.59 1003.90 1000.86 1001.78 1001.64 1001.77 1002.41 1002.73 1002.89 1003.08 1003.53 1003.88 1004.40 1004.80 1005.01 1004.78 1004.72 1004.78 1004.72 1004.22 1004.52 1004.80 1004.71 1003.82 1003.60 1002.05 1002.98 1002.57 1002.99 1003.32 1003.92 1005.03 1005.20 1005.59 1006.11 1006.28 1006.51 1006.72 1006.92 1007.08 1007.75 1007.64 1007.75
1007.58 1007.61 1007.03 1006.57 1006.07 1004.59 1003.09 1003.12 1000.65 1000.61 1001.41 1001.70 1002.14 1002.35 1002.45 1002.69 1003.09 1003.60 1004.14 1004.35 1004.31 1004.47 1004.54 1004.62 1004.44 1004.73 1004.95 1005.42 1004.48 1003.95 1003.90 1003.37 1002.50 1002.11 1002.18 1002.49 1002.88 1003.53 1004.48 1004.86 1005.37 1005.53 1005.84 1005.98 1006.44 1006.87 1007.33 1007.18 1007.02
1007.61 1007.12 1005.64 1004.73 1004.32 1002.89 1003.78 1003.44 1001.57 1001.80 1002.22 1002.17 1002.04 1002.14 1002.31 1002.68 1002.91 1003.22 1003.38 1003.63 1004.03 1004.00 1004.05 1004.17 1004.18 1004.21 1004.56 1004.15 1003.77 1003.71 1003.59 1003.51 1002.79 1002.27 1001.86 1002.00 1001.97 1002.33 1002.80 1003.97 1004.43 1004.76 1005.13 1005.29 1005.84 1006.43 1006.48 1006.63 1006.64
1006.35 1006.86 1006.09 1004.88 1003.81 1002.87 1003.22 1001.91 1000.97 1002.09 1002.77 1002.72 1002.61 1002.59 1002.79 1002.72 1002.53 1002.83 1002.95 1003.20 1003.26 1003.45 1003.49 1003.42 1003.51 1003.57 1003.25 1003.19 1003.04 1003.05 1003.21 1002.92 1002.31 1002.07 1001.74 1001.38 1001.36 1001.54 1002.05 1002.91 1003.54 1004.19 1004.71 1004.76 1005.08 1005.40 1005.64 1005.78 1006.30
1006.57 1007.22 1006.94 1006.66 1006.00 1004.76 1002.90 1001.63 1001.23 1001.37 1002.36 1002.23 1002.25 1002.41 1002.38 1002.45 1002.45 1002.69 1002.80 1002.88 1003.00 1003.11 1003.20 1003.20 1003.04 1002.96 1002.89 1002.79 1002.71 1002.57 1002.42 1002.23 1001.67 1001.35 1001.36 1001.45 1001.23 1001.32 1001.79 1002.05 1002.69 1003.34 1003.78 1004.21 1004.45 1004.43 1004.77 1005.13 1005.86
1007.21 1006.96 1007.26 1007.09 1005.80 1003.75 1001.84 1000.87 1000.18 1000.99 1001.18 1002.05 1002.16 1002.25 1002.21 1002.47 1002.61 1002.57 1002.57 1002.69 1002.82 1002.91 1002.83 1002.65 1002.73 1002.54 1002.43 1002.23 1001.91 1001.74 1001.65 1001.41 1001.28 1000.88 1000.47 1000.24 1000.21 1000.40 1000.63 1001.29 1001.80 1002.38 1003.10 1003.45 1003.90 1003.74 1004.24 1004.82 1005.38
1006.81 1007.02 1007.34 1007.09 1006.76 1005.39 1002.96 1000.74 1000.84 1001.37 1001.65 1002.06 1002.51 1002.64 1002.97 1003.10 1002.88 1002.60 1002.35 1002.34 1002.30 1002.35 1002.12 1001.85 1001.89 1001.76 1001.60 1001.38 1001.23 1001.02 1000.79 1000.59 1000.26 999.91 1000.01 999.99 1000.14 1000.01 1000.25 1000.46 1000.93 1001.50 1002.16 1002.69 1003.16 1003.09 1003.53 1004.25 1004.73
1006.71 1006.31 1006.72 1007.29 1006.62 1005.72 1004.85 1000.99 1001.36 1001.27 1001.76 1002.20 1002.62 1002.69 1002.82 1002.95 1002.97 1002.74 1002.41 1002.21 1001.92 1001.57 1001.31 1001.24 1001.53 1001.35 1001.04 1000.82 1000.55 1000.36 1000.30 1000.07 999.63 999.29 999.23 999.27 999.23 999.49 999.64 1000.04 1000.13 1000.68 1001.22 1001.92 1002.36 1002.63 1002.92 1003.65 1004.22
Wind_Speed
11 3 4 6 8 7 13 5 2 6 8 1 2 6 7 13 6 3 5 4 12 19 21 23 19 16 16 17 18 17 17 17 17 17 17 17 16 16 14 13 11 11 12 12 11 11 10 10 10
6 5 5 3 8 10 9 3 8 2 5 6 8 7 11 13 5 10 7 3 12 19 19 23 19 17 16 16 17 17 17 18 18 17 17 16 15 15 15 13 13 12 12 11 11 11 10 10 10
6 5 5 4 8 9 8 1 4 5 5 1 3 3 7 4 10 13 5 3 12 17 19 20 22 17 16 16 16 17 17 17 18 18 18 17 16 15 15 13 13 13 12 12 11 11 10 10 10
5 5 4 9 10 4 9 6 4 3 2 3 3 7 2 3 13 18 15 8 15 18 20 22 24 20 16 15 16 17 17 17 17 17 18 17 17 15 15 14 13 12 12 12 11 10 10 11 10
6 4 9 10 8 4 9 9 10 11 8 8 1 4 9 3 16 16 12 10 18 20 19 22 23 22 18 16 14 15 16 16 16 17 17 17 17 16 15 14 13 12 11 12 12 11 10 9 10
8 6 10 13 13 10 9 8 8 6 5 6 7 8 2 10 19 16 11 10 17 21 20 20 21 21 19 16 15 14 14 15 16 16 17 16 15 15 15 14 13 12 11 11 11 10 9 8 9
15 11 16 17 14 13 11 11 10 9 6 6 7 8 3 14 17 13 9 7 15 20 19 19 21 19 18 16 13 11 11 12 12 12 13 13 13 13 13 12 11 11 10 10 10 9 8 8 8
10 12 21 18 17 19 11 10 12 9 10 6 3 4 11 12 12 11 6 6 14 18 19 20 20 20 19 18 13 12 9 9 8 9 9 10 10 9 10 9 10 11 10 9 9 9 8 8 7
12 13 17 23 21 15 8 12 9 4 7 10 7 8 11 11 15 9 2 6 12 15 17 18 18 18 18 19 16 11 12 9 8 9 8 9 11 12 13 11 12 10 10 10 10 10 9 8 8
14 16 25 20 18 13 15 17 9 7 14 15 13 13 8 13 16 12 10 7 12 15 18 15 16 17 17 14 16 16 14 13 12 13 13 11 11 9 9 9 7 10 9 9 10 10 9 9 9
13 21 18 13 12 17 17 18 9 11 16 18 16 11 16 18 14 10 10 12 16 15 14 16 11 13 17 14 12 10 9 10 11 15 13 12 9 7 8 6 7 9 11 9 11 10 9 11 9
12 14 18 11 11 9 16 16 12 14 16 13 13 11 15 15 12 11 6 6 10 15 17 16 16 14 14 12 11 12 11 11 10 13 14 10 8 8 8 7 8 8 7 9 9 7 8 10 11
16 11 9 14 13 15 14 16 17 18 10 12 17 11 11 13 9 9 3 4 6 7 15 17 16 15 15 14 12 11 11 11 11 11 13 11 10 9 9 8 8 7 7 7 8 7 7 9 11
1 11 12 13 15 14 16 18 16 17 7 9 13 12 14 14 12 13 9 4 5 6 10 16 17 13 14 14 12 11 9 8 10 10 10 13 10 9 9 9 8 7 7 7 7 8 7 8 10
7 12 16 16 17 15 10 18 23 16 10 17 18 12 10 8 9 8 6 6 6 7 9 11 15 17 16 17 13 11 10 11 11 10 13 13 13 11 10 8 8 8 8 8 7 7 8 8 9
11 8 13 9 7 9 9 15 4 3 5 4 7 8 9 8 6 3 2 3 4 6 7 8 9 15 17 16 13 12 11 12 11 9 10 13 14 14 11 9 7 8 7 7 8 9 8 9 8
9 11 8 6 6 2 10 10 6 5 8 8 7 6 8 7 7 2 4 4 5 7 6 9 10 10 10 15 13 13 13 12 12 11 11 13 16 15 11 9 8 7 8 8 8 8 8 8 8
7 9 8 9 7 9 12 14 12 13 13 12 12 11 9 9 6 4 5 5 5 5 6 5 3 7 3 10 11 9 10 11 10 9 10 11 9 12 10 9 5 8 8 7 9 9 8 8 8
5 7 9 5 5 10 13 15 16 16 17 17 15 14 14 10 8 6 7 6 3 4 4 4 6 5 8 10 14 12 11 10 13 11 13 13 13 12 11 11 7 9 11 7 10 9 9 9 8
8 10 11 7 6 10 14 18 20 19 18 19 18 17 16 13 11 9 6 6 4 4 5 4 2 6 9 13 8 8 9 11 10 11 11 13 12 12 13 13 9 12 11 10 13 11 8 9 8
10 10 8 9 11 16 13 22 13 8 8 11 12 13 10 11 11 11 8 7 7 6 6 7 5 5 6 11 9 8 7 6 8 12 11 12 16 16 16 15 12 13 12 11 13 11 13 9 8
12 5 7 9 11 10 3 7 7 11 7 8 7 8 8 9 10 11 11 11 9 7 6 7 9 5 6 7 9 11 8 10 11 10 9 11 16 17 16 14 16 14 12 12 12 11 12 11 8
11 2 9 11 13 16 15 9 4 2 9 6 3 3 6 6 6 8 7 6 6 7 9 8 7 7 7 8 9 9 12 9 14 11 13 11 11 14 15 17 16 14 12 12 11 12 13 10 9
2 11 14 16 10 13 10 8 7 6 7 6 5 6 5 7 5 3 3 3 6 6 7 9 9 8 7 10 9 10 13 13 12 12 11 11 10 11 15 16 15 14 13 13 11 11 13 11 10
11 11 9 9 11 7 5 8 10 2 4 8 12 10 8 4 4 6 6 5 6 10 10 9 10 11 11 10 8 10 12 14 15 14 12 13 11 11 11 14 13 12 14 12 12 13 12 12 10
9 9 9 9 8 7 5 8 4 6 4 8 11 10 8 7 6 7 7 8 9 9 11 13 14 14 14 13 13 10 12 10 11 14 14 12 12 10 9 13 14 14 14 13 13 11 10 10 9
7 10 6 12 16 15 12 14 12 15 7 6 5 3 7 8 8 9 11 12 13 13 13 14 15 16 15 15 13 12 12 13 12 12 11 10 9 8 10 13 13 14 14 14 13 10 10 9 10
14 10 7 9 9 14 10 12 10 14 2 4 4 6 6 6 10 13 15 17 16 15 16 14 14 15 16 16 14 13 13 13 14 12 13 13 11 12 11 12 14 14 15 14 13 9 10 10 9
8 12 11 10 7 7 10 5 7 4 6 5 8 5 8 12 17 19 19 19 17 17 18 17 15 14 13 14 14 15 15 16 14 12 13 13 12 12 13 13 15 15 15 14 13 11 12 13 11
13 15 14 8 10 11 12 21 9 8 6 6 10 15 16 15 16 18 18 19 19 19 18 13 14 14 14 14 16 16 16 16 15 15 15 13 13 13 14 15 15 16 15 14 14 13 13 13 12
Wind_Direction
275 293 266 238 238 240 241 186 283 164 179 235 297 292 301 318 278 29 62 156 153 157 156 165 159 166 168 162 158 157 155 152 151 153 151 152 151 147 145 144 140 144 145 144 140 138 138 137 129
301 270 232 257 254 228 223 210 204 234 35 317 262 249 247 256 313 313 320 87 158 155 161 166 163 167 172 167 161 160 159 155 153 154 152 155 152 148 144 147 149 153 151 151 149 146 144 138 133
246 257 263 259 243 246 304 117 301 120 355 62 260 264 306 352 21 322 44 327 186 167 166 163 160 170 174 173 168 164 162 159 157 156 155 157 154 152 150 154 159 162 162 159 152 148 147 146 145
206 191 203 245 241 183 259 331 29 230 342 197 337 268 264 62 349 323 300 257 194 177 174 150 161 169 177 182 173 168 165 164 162 160 159 159 158 158 157 160 164 165 164 160 158 157 159 154 154
215 252 252 243 248 278 251 270 288 279 286 259 353 298 301 39 357 342 314 220 191 180 179 161 166 169 175 181 184 176 170 168 169 167 163 164 163 162 164 165 169 168 170 165 164 168 164 163 159
221 275 240 241 228 220 233 261 269 280 288 246 242 310 333 1 0 348 326 221 195 178 176 166 175 171 175 180 183 186 179 176 175 171 170 169 168 168 170 168 170 172 176 172 170 172 172 174 166
241 224 249 254 248 231 231 219 251 263 272 234 339 297 360 3 3 355 329 237 199 178 175 169 178 176 175 179 181 186 186 181 180 178 172 169 171 175 171 172 173 176 182 177 175 178 182 185 179
240 246 249 243 247 241 235 220 231 236 272 348 255 315 332 347 360 348 347 241 193 183 180 173 179 180 184 182 178 179 184 182 181 175 168 167 169 176 175 174 182 184 184 183 181 186 190 198 195
226 237 240 236 235 247 228 222 206 214 249 277 286 295 323 331 334 335 21 227 199 185 187 178 180 182 189 184 177 177 178 175 170 168 166 164 194 186 179 201 170 196 190 187 186 191 194 202 217
218 227 241 247 246 245 236 212 212 257 243 256 272 281 288 315 323 324 328 199 209 193 190 182 185 184 192 189 179 194 196 196 197 195 189 208 207 199 213 194 189 198 199 201 191 197 196 207 232
222 245 244 251 279 270 267 251 239 238 253 257 280 306 306 308 305 312 319 331 192 206 196 196 182 189 197 199 182 185 196 198 199 202 198 205 201 205 207 208 203 222 202 218 200 203 225 225 237
249 237 262 242 231 261 260 265 257 247 247 301 290 295 302 300 307 314 326 313 304 193 212 205 194 195 207 195 191 187 192 197 201 202 201 203 206 200 221 211 211 207 220 219 228 215 233 234 238
238 232 232 247 252 244 262 258 261 264 262 281 278 266 283 293 295 296 333 237 299 250 217 206 212 197 203 216 194 202 201 195 202 201 200 212 209 205 218 221 225 222 228 219 237 233 227 237 246
240 259 243 245 253 250 252 263 256 256 223 249 261 267 287 290 283 286 285 274 264 287 257 215 203 201 202 212 202 200 205 197 209 208 205 213 219 210 223 216 218 225 231 242 237 229 232 231 251
245 251 236 238 246 247 267 261 248 262 280 256 261 263 272 287 286 273 305 282 266 271 278 230 212 202 201 206 202 203 199 211 204 212 212 212 215 223 229 225 219 223 218 226 231 248 235 247 249
237 242 240 172 224 204 223 259 120 165 276 247 307 315 267 248 269 277 302 287 294 246 244 226 218 209 212 213 196 210 209 203 208 219 217 214 211 222 218 216 217 239 242 230 215 219 232 239 242
199 258 222 159 200 224 230 254 164 229 275 281 266 266 276 256 249 270 321 334 329 317 281 206 198 216 209 231 216 208 206 209 214 208 217 213 217 210 211 211 210 217 224 216 233 222 232 239 242
207 233 206 256 167 247 250 248 248 254 263 267 269 266 252 265 262 296 310 324 329 332 342 328 303 183 184 240 231 214 212 217 225 217 228 220 215 207 206 229 202 197 239 197 226 224 210 238 248
271 260 262 247 290 279 272 274 270 260 256 254 251 259 266 263 262 262 291 302 310 356 344 8 322 1 216 232 222 201 212 218 219 223 220 210 212 217 200 214 194 208 234 187 216 209 215 225 229
247 256 257 280 271 288 276 279 277 263 256 251 251 246 251 259 253 257 259 287 326 329 345 312 147 198 219 231 224 216 198 216 227 230 222 223 216 196 213 219 196 215 229 199 221 201 210 223 210
235 269 288 286 313 274 279 269 245 223 237 243 245 255 246 251 268 264 282 313 318 339 343 310 314 301 277 266 238 221 227 230 217 223 221 210 208 206 212 214 212 211 217 207 213 196 211 218 199
267 185 270 278 285 288 347 291 258 231 237 205 240 254 254 256 242 248 271 299 312 322 318 318 315 322 288 287 255 253 224 226 231 226 217 205 210 216 217 221 220 224 215 224 200 194 212 227 210
272 287 269 285 278 284 257 240 250 159 221 234 173 258 264 251 265 290 267 292 301 313 323 316 313 324 302 281 269 264 242 233 243 228 221 217 192 212 219 217 221 220 219 215 220 197 206 201 227
291 257 262 255 259 247 232 250 266 182 223 169 284 287 285 286 279 219 193 286 305 303 311 317 315 290 268 257 258 246 265 249 247 226 230 225 220 205 219 218 219 216 216 218 206 207 205 217 208
234 255 269 235 201 253 115 266 253 177 231 289 305 305 298 331 254 233 250 285 316 316 312 306 302 294 280 270 263 259 253 256 254 249 228 235 223 218 203 212 216 215 212 203 202 206 206 203 211
217 277 286 288 274 297 232 251 98 99 314 277 284 275 272 252 235 254 264 272 287 298 306 304 301 299 299 289 280 269 254 251 245 245 245 235 228 226 196 199 216 218 211 204 200 201 208 198 208
218 232 299 287 271 266 257 260 238 214 213 257 286 292 236 258 278 279 293 293 301 302 293 295 296 292 293 284 273 270 266 254 258 246 228 239 237 220 206 202 204 207 208 203 194 212 194 196 203
251 296 225 212 266 256 248 266 271 177 258 302 303 295 298 298 284 295 305 304 301 299 295 286 284 284 290 286 277 271 268 260 253 250 248 244 237 215 214 198 195 195 200 199 198 190 187 188 193
184 224 226 290 243 258 283 272 62 314 297 283 305 304 314 295 294 298 297 294 288 284 288 288 275 267 277 284 275 271 271 268 261 252 247 235 233 219 213 201 192 192 195 195 194 196 175 189 192
272 274 217 226 238 245 277 272 341 305 286 312 277 297 302 300 297 296 293 290 289 281 281 278 278 272 276 276 273 269 266 266 258 251 246 235 225 220 210 206 197 194 193 190 190 188 181 193 195